Tracking 21076 objects as of 10-Aug-2020
HD Live streaming from Space Station
objects crossing your sky now
Track the most recent launched group of Starlink satellites

BEIDOU 3M8

Track BEIDOU 3M8 now!
BEIDOU 3M8 is classified as:


NORAD ID: 43246
Int'l Code: 2018-029B
Perigee: 21,525.8 km
Apogee: 21,544.2 km
Inclination: 55.3 °
Period: 773.2 minutes
Semi major axis: 27905 km
RCS: Unknown
Launch date: March 29, 2018
Source: People's Republic of China (PRC)
Launch site: Xichang Space Center, China (XSC)
aabbcc
Your satellite tracking list
Your tracking list is empty




NASA's NSSDC Master Catalog

Two Line Element Set (TLE):
1 43246U 18029B   20222.01438424 -.00000092 +00000-0 +10000-3 0  9999
2 43246 055.3100 013.6369 0003288 353.2070 188.3556 01.86232929016065
Source of the keplerian elements: AFSPC